COSMOS 726

导读

COSMOS 726是苏联(现归属独联体CIS)于1975年4月11日发射的卫星,属于苏联"宇宙"(COSMOS)系列卫星。冷战背景下,该系列多承担军事侦察与航天技术试验任务,COSMOS 726具体任务细节未公开,推测用于电子情报收集或空间技术验证,是苏联冷战太空部署的组成部分,现已完成使命,成为太空观测史上的早期卫星案例。

基本信息
目录编号:
7736
目录名称:
COSMOS 726
国际标识:
1975-028A
轨道中心:
EARTH
卫星名称:
COSMOS 726
卫星全名:
--
卫星状态:
在轨 (已飞行18690 天)
发射日期:
1975-04-11 UTC
国别 :
俄罗斯(独联体) (CIS)
星等 :
--
轨道信息
数据来源 国际轨道数据
星历时间: 2026-06-12T14:49:52+0800
12小时前
查看轨道信息
半长轴: 7347.512km
偏心率: 0.0027082
轨道倾角: 82.996°
近地点辐角 62.429°
升交点赤经 225.555°
平近点角 297.961°
近地点: 949.476km
远地点: 989.274km
周期: 104.465分钟
每日圈数: 13.784543
详细信息
使用方式:
暂无
2D轨道图
3D轨道图
轨道高度分析图
轨道倾角分析图
轨道综合分析图
查看轨道综合分析图